Location: Kawakawa
(35.3830°S, 174.0670°E)
Time: 20:40:05
(UTC+13:00)

Altair - Pass Details

Date: 10 December 2019
Orbit: 1502 x 1682 km, 47.2° (Epoch: 28 January)

Event Time Altitude Azimuth Distance (km) Brightness Sun altitude
Rises 13:19:28 0° 258° (WSW) 4,854 10.1 77.5°
Reaches altitude 10° 13:22:51 10° 250° (WSW) 3,893 9.7 77.4°
Maximum altitude 13:32:14 42° 181° (S) 2,252 8.9 77.0°
Drops below altitude 10° 13:41:48 10° 112° (ESE) 3,962 9.7 76.3°
Sets 13:45:17 0° 105° (ESE) 4,947 10.1 76.0°
